GW6241 Weather Reports


Display with metric or nautical units.
time (UTC)temp
F
wind
direction
speed
MPH
gust
MPH
rain 1hr
in
rain 24hr
in
rain mn
in
humidity
%
barometer
mb
20260507124519 65 77 3.0 6.0 0.00 0.00 0.00 31 1014.9
20260507124007 64 55 4.0 6.0 0.00 0.00 0.00 31 1014.9
20260507123507 64 51 4.0 5.0 0.00 0.00 0.00 31 1014.8
20260507123015 64 54 3.0 7.0 0.00 0.00 0.00 31 1014.8
20260507122507 64 49 5.0 8.0 0.00 0.00 0.00 31 1014.7
20260507122008 64 53 4.0 8.0 0.00 0.00 0.00 31 1014.8
20260507121522 64 42 4.0 6.0 0.00 0.00 0.00 31 1014.9
20260507121008 64 34 4.0 6.0 0.00 0.00 0.00 31 1014.9
20260507120511 64 46 4.0 9.0 0.00 0.00 0.00 31 1014.9
20260507120025 64 42 4.0 9.0 0.00 0.00 0.00 31 1014.9
20260507115508 64 61 4.0 9.0 0.00 0.00 0.00 31 1014.9
20260507115013 64 19 4.0 9.0 0.00 0.00 0.00 31 1015.0
20260507114508 64 19 5.0 9.0 0.00 0.00 0.00 31 1015.0
20260507114014 64 69 5.0 9.0 0.00 0.00 0.00 31 1015.0
20260507113504 64 62 5.0 8.0 0.00 0.00 0.00 31 1015.1
20260507113014 63 36 4.0 8.0 0.00 0.00 0.00 31 1015.2
20260507112509 63 66 4.0 6.0 0.00 0.00 0.00 32 1015.2
20260507112009 63 48 2.0 4.0 0.00 0.00 0.00 31 1015.3
20260507111521 64 13 1.0 5.0 0.00 0.00 0.00 31 1015.3
20260507111006 64 28 1.0 8.0 0.00 0.00 0.00 31 1015.3
20260507110507 64 57 3.0 9.0 0.00 0.00 0.00 30 1015.3
20260507110023 64 30 6.0 9.0 0.00 0.00 0.00 31 1015.3
20260507105508 64 20 5.0 7.0 0.00 0.00 0.00 30 1015.3
20260507105007 64 11 3.0 7.0 0.00 0.00 0.00 31 1015.3
20260507104527 64 25 4.0 8.0 0.00 0.00 0.00 30 1015.3
20260507104012 64 53 3.0 8.0 0.00 0.00 0.00 31 1015.3
20260507103512 64 65 3.0 7.0 0.00 0.00 0.00 30 1015.3
20260507103026 65 74 3.0 7.0 0.00 0.00 0.00 30 1015.4
20260507102504 65 50 3.0 6.0 0.00 0.00 0.00 30 1015.5
20260507102006 65 54 2.0 5.0 0.00 0.00 0.00 30 1015.5
20260507101518 65 51 3.0 5.0 0.00 0.00 0.00 30 1015.5
20260507101007 64 46 4.0 5.0 0.00 0.00 0.00 30 1015.6
20260507100506 65 70 3.0 5.0 0.00 0.00 0.00 31 1015.6
20260507100027 65 53 3.0 6.0 0.00 0.00 0.00 30 1015.7
20260507095509 65 56 4.0 10.0 0.00 0.00 0.00 30 1015.7
20260507095007 65 63 4.0 10.0 0.00 0.00 0.00 30 1015.6
20260507094527 64 65 7.0 10.0 0.00 0.00 0.00 31 1015.7
20260507094007 63 86 5.0 7.0 0.00 0.00 0.00 31 1015.6
20260507093509 63 80 4.0 9.0 0.00 0.00 0.00 32 1015.6
20260507093028 63 52 5.0 9.0 0.00 0.00 0.00 32 1015.6
20260507092518 63 58 6.0 9.0 0.00 0.00 0.00 32 1015.7
20260507092009 63 63 4.0 8.0 0.00 0.00 0.00 32 1015.6
20260507091517 63 76 6.0 9.0 0.00 0.00 0.00 32 1015.7
20260507091006 63 49 6.0 9.0 0.00 0.00 0.00 32 1015.8
20260507090507 63 78 6.0 8.0 0.00 0.00 0.00 31 1015.8
20260507090022 64 92 5.0 10.0 0.00 0.00 0.00 31 1015.8
20260507085507 64 97 5.0 10.0 0.00 0.00 0.00 31 1015.9
20260507085006 65 59 5.0 10.0 0.00 0.00 0.00 30 1015.9
20260507084522 65 82 7.0 10.0 0.00 0.00 0.00 30 1015.8
20260507084010 65 32 5.0 10.0 0.00 0.00 0.00 30 1015.8
20260507083509 65 62 6.0 11.0 0.00 0.00 0.00 30 1015.8
20260507083025 65 42 6.0 11.0 0.00 0.00 0.00 30 1015.8
20260507082508 65 72 6.0 11.0 0.00 0.00 0.00 31 1015.9
20260507082008 65 67 5.0 9.0 0.00 0.00 0.00 31 1015.9
20260507081526 65 60 5.0 9.0 0.00 0.00 0.00 31 1015.9
20260507081010 64 80 6.0 9.0 0.00 0.00 0.00 31 1015.9
20260507080507 64 79 5.0 9.0 0.00 0.00 0.00 31 1016.0
20260507080018 64 52 5.0 8.0 0.00 0.00 0.00 31 1016.0
20260507075506 64 57 5.0 7.0 0.00 0.00 0.00 32 1016.0
20260507075009 64 65 4.0 7.0 0.00 0.00 0.00 32 1016.0
20260507074529 64 84 4.0 7.0 0.00 0.00 0.00 32 1016.1
20260507074009 64 65 4.0 6.0 0.00 0.00 0.00 32 1016.1
20260507073511 64 76 4.0 6.0 0.00 0.00 0.00 32 1016.2
20260507073026 64 67 3.0 5.0 0.00 0.00 0.00 32 1016.1
20260507072507 64 90 4.0 6.0 0.00 0.00 0.00 32 1016.2
20260507072012 64 82 4.0 8.0 0.00 0.00 0.00 32 1016.1
20260507071556 64 73 4.0 8.0 0.00 0.00 0.00 32 1016.1
20260507071011 64 57 4.0 7.0 0.00 0.00 0.00 32 1016.2
20260507070511 64 84 4.0 7.0 0.00 0.00 0.00 32 1016.2
20260507070030 64 68 4.0 6.0 0.00 0.00 0.00 32 1016.3
20260507065506 64 72 3.0 6.0 0.00 0.00 0.00 32 1016.2
20260507065006 64 68 4.0 6.0 0.00 0.00 0.00 32 1016.2
20260507064521 64 81 4.0 5.0 0.00 0.00 0.00 32 1016.1
20260507064013 64 94 3.0 7.0 0.00 0.00 0.00 32 1016.1
20260507063508 64 85 4.0 7.0 0.00 0.00 0.00 33 1016.2
20260507063023 64 84 4.0 5.0 0.00 0.00 0.00 33 1016.2
20260507062512 64 92 3.0 4.0 0.00 0.00 0.00 32 1016.1
20260507062011 64 76 3.0 4.0 0.00 0.00 0.00 32 1016.1
20260507061530 64 89 2.0 4.0 0.00 0.00 0.00 32 1016.1
20260507061006 64 78 3.0 4.0 0.00 0.00 0.00 33 1016.1
20260507060508 65 77 3.0 4.0 0.00 0.00 0.00 33 1016.1
20260507060026 65 71 3.0 3.0 0.00 0.00 0.00 32 1016.1
20260507055509 65 78 2.0 3.0 0.00 0.00 0.00 33 1016.0
20260507055014 65 83 2.0 3.0 0.00 0.00 0.00 33 1016.0
20260507054516 65 82 2.0 3.0 0.00 0.00 0.00 33 1016.0
20260507054014 65 79 2.0 3.0 0.00 0.00 0.00 32 1016.0
20260507053510 65 76 2.0 3.0 0.00 0.00 0.00 33 1016.0
20260507053025 66 74 2.0 2.0 0.00 0.00 0.00 31 1016.0
20260507052510 66 78 1.0 2.0 0.00 0.00 0.00 31 1016.0
20260507052008 66 78 1.0 3.0 0.00 0.00 0.00 31 1016.0
20260507051531 66 70 2.0 3.0 0.00 0.00 0.00 32 1016.0
20260507051009 66 81 2.0 3.0 0.00 0.00 0.00 32 1016.0
20260507050509 66 67 1.0 2.0 0.00 0.00 0.00 31 1016.0
20260507050034 66 73 0.0 2.0 0.00 0.00 0.00 33 1016.0
20260507045509 66 75 2.0 3.0 0.00 0.00 0.00 31 1016.0
20260507045009 66 73 2.0 3.0 0.00 0.00 0.00 32 1015.9
20260507044519 66 74 2.0 2.0 0.00 0.00 0.00 31 1015.9
20260507044008 66 80 1.0 2.0 0.00 0.00 0.00 30 1015.9
20260507043508 67 83 1.0 2.0 0.00 0.00 0.00 30 1015.9
20260507043027 67 87 2.0 2.0 0.00 0.00 0.00 30 1015.8
20260507042509 67 93 1.0 1.0 0.00 0.00 0.00 30 1015.8
20260507042003 67 261 1.0 1.0 0.00 0.00 0.00 29 1015.7
20260507041504 68 261 1.0 1.0 0.00 0.00 0.00 30 1015.7
20260507041010 68 260 0.0 1.0 0.00 0.00 0.00 28 1015.6
20260507040507 69 260 0.0 0.0 0.00 0.00 0.00 28 1015.5
20260507040007 69 260 0.0 0.0 0.00 0.00 0.00 27 1015.5
20260507035504 69 260 0.0 1.0 0.00 0.00 0.00 27 1015.4
20260507035004 70 260 0.0 1.0 0.00 0.00 0.00 27 1015.4
20260507034529 70 260 0.0 2.0 0.00 0.00 0.00 27 1015.4
20260507034007 70 260 0.0 2.0 0.00 0.00 0.00 27 1015.3
20260507033508 71 260 0.0 2.0 0.00 0.00 0.00 26 1015.2
20260507033032 71 254 0.0 2.0 0.00 0.00 0.00 26 1015.2
20260507032513 72 226 1.0 2.0 0.00 0.00 0.00 25 1015.1
20260507032010 72 237 1.0 3.0 0.00 0.00 0.00 25 1015.1
20260507031522 72 257 2.0 4.0 0.00 0.00 0.00 26 1014.9
20260507031013 73 265 2.0 3.0 0.00 0.00 0.00 26 1014.8
20260507030506 73 259 1.0 5.0 0.00 0.00 0.00 25 1014.7
20260507030006 73 234 1.0 5.0 0.00 0.00 0.00 25 1014.7
20260507025505 74 248 1.0 3.0 0.00 0.00 0.00 25 1014.6
20260507025005 74 216 0.0 3.0 0.00 0.00 0.00 24 1014.5
20260507024512 74 223 1.0 4.0 0.00 0.00 0.00 24 1014.5
20260507024008 75 263 1.0 4.0 0.00 0.00 0.00 24 1014.4
20260507023507 75 269 1.0 6.0 0.00 0.00 0.00 24 1014.4
20260507023025 75 265 2.0 7.0 0.00 0.00 0.00 23 1014.3
20260507022507 76 242 2.0 7.0 0.00 0.00 0.00 24 1014.3
20260507022010 76 233 3.0 8.0 0.00 0.00 0.00 23 1014.2
20260507021522 76 262 3.0 8.0 0.00 0.00 0.00 23 1014.2
20260507021012 77 237 2.0 7.0 0.00 0.00 0.00 22 1014.1
20260507020512 77 266 2.0 10.0 0.00 0.00 0.00 23 1014.0
20260507020025 77 219 2.0 10.0 0.00 0.00 0.00 22 1014.0
20260507015504 78 287 3.0 8.0 0.00 0.00 0.00 22 1013.9
20260507015017 78 261 4.0 11.0 0.00 0.00 0.00 22 1013.9
20260507014513 78 275 4.0 11.0 0.00 0.00 0.00 22 1013.9
20260507014006 79 273 2.0 9.0 0.00 0.00 0.00 22 1013.8
20260507013510 79 268 3.0 9.0 0.00 0.00 0.00 22 1013.8
20260507013016 79 265 5.0 8.0 0.00 0.00 0.00 22 1013.8
20260507012509 79 271 3.0 6.0 0.00 0.00 0.00 22 1013.9
20260507012011 79 262 2.0 8.0 0.00 0.00 0.00 22 1013.9
20260507011522 79 281 5.0 8.0 0.00 0.00 0.00 21 1013.9
20260507011006 79 229 3.0 9.0 0.00 0.00 0.00 21 1013.9
20260507010506 80 219 5.0 10.0 0.00 0.00 0.00 21 1013.9
20260507010025 80 273 4.0 14.0 0.00 0.00 0.00 21 1013.8
20260507005511 80 264 7.0 14.0 0.00 0.00 0.00 21 1013.8
20260507005011 80 219 5.0 8.0 0.00 0.00 0.00 21 1013.8
20260507004509 80 209 4.0 8.0 0.00 0.00 0.00 21 1013.8
20260507004005 81 254 3.0 11.0 0.00 0.00 0.00 21 1013.8
20260507003510 81 240 3.0 11.0 0.00 0.00 0.00 21 1013.8
20260507003013 81 222 3.0 13.0 0.00 0.00 0.00 21 1013.8
20260507002505 81 270 3.0 13.0 0.00 0.00 0.00 20 1013.7
20260507002008 81 272 5.0 11.0 0.00 0.00 0.00 20 1013.7
20260507001518 81 263 5.0 11.0 0.00 0.00 0.00 21 1013.7
20260507001006 81 253 2.0 10.0 0.00 0.00 0.00 20 1013.7
20260507000509 81 254 4.0 11.0 0.00 0.00 0.00 21 1013.8
20260507000024 80 248 5.0 11.0 0.00 0.00 0.00 21 1013.7
20260506235507 80 219 3.0 12.0 0.00 0.00 0.00 21 1013.7
20260506235009 80 268 6.0 12.0 0.00 0.00 0.00 21 1013.7
20260506234526 80 196 4.0 10.0 0.00 0.00 0.00 21 1013.7
20260506234011 79 236 3.0 11.0 0.00 0.00 0.00 21 1013.7
20260506233508 80 118 5.0 11.0 0.00 0.00 0.00 20 1013.8
20260506233012 82 229 5.0 15.0 0.00 0.00 0.00 20 1013.9
20260506232504 82 265 6.0 15.0 0.00 0.00 0.00 20 1013.9
20260506232009 82 190 5.0 12.0 0.00 0.00 0.00 20 1013.8
20260506231516 83 265 2.0 9.0 0.00 0.00 0.00 19 1013.8
20260506231006 83 269 4.0 9.0 0.00 0.00 0.00 20 1013.9
20260506230505 82 267 3.0 10.0 0.00 0.00 0.00 20 1013.9
20260506230021 82 271 2.0 13.0 0.00 0.00 0.00 20 1013.9
20260506225508 82 278 7.0 13.0 0.00 0.00 0.00 20 1014.0
20260506225006 81 275 3.0 8.0 0.00 0.00 0.00 20 1014.0
20260506224504 82 221 3.0 14.0 0.00 0.00 0.00 20 1014.1
20260506224007 82 274 5.0 15.0 0.00 0.00 0.00 21 1014.1
20260506223512 81 270 8.0 15.0 0.00 0.00 0.00 21 1014.1
20260506223009 81 264 4.0 12.0 0.00 0.00 0.00 21 1014.2
20260506222510 83 142 2.0 12.0 0.00 0.00 0.00 20 1014.2
20260506222011 83 235 5.0 10.0 0.00 0.00 0.00 20 1014.3
20260506221516 83 231 6.0 12.0 0.00 0.00 0.00 20 1014.4
20260506221008 82 270 7.0 12.0 0.00 0.00 0.00 20 1014.5
20260506220507 81 304 3.0 10.0 0.00 0.00 0.00 21 1014.6
20260506220031 80 259 2.0 7.0 0.00 0.00 0.00 20 1014.6
20260506215508 82 217 3.0 12.0 0.00 0.00 0.00 19 1014.7
20260506215009 83 217 2.0 12.0 0.00 0.00 0.00 20 1014.8
20260506214527 83 249 6.0 9.0 0.00 0.00 0.00 20 1014.8
20260506214004 82 271 3.0 11.0 0.00 0.00 0.00 21 1014.9
20260506213503 80 262 7.0 11.0 0.00 0.00 0.00 22 1015.1
20260506213030 78 264 2.0 8.0 0.00 0.00 0.00 21 1015.2
20260506212503 79 95 5.0 8.0 0.00 0.00 0.00 21 1015.2
20260506212011 81 90 4.0 13.0 0.00 0.00 0.00 20 1015.3
20260506211513 81 246 8.0 13.0 0.00 0.00 0.00 20 1015.4
20260506211006 81 225 8.0 15.0 0.00 0.00 0.00 20 1015.4
20260506210507 82 129 5.0 15.0 0.00 0.00 0.00 20 1015.5
20260506210019 82 302 5.0 13.0 0.00 0.00 0.00 20 1015.6
20260506205510 82 279 8.0 13.0 0.00 0.00 0.00 20 1015.6
20260506205007 82 323 6.0 10.0 0.00 0.00 0.00 20 1015.7
20260506204522 82 149 3.0 11.0 0.00 0.00 0.00 20 1015.7
20260506204013 81 257 2.0 13.0 0.00 0.00 0.00 20 1015.8
20260506203507 80 261 8.0 13.0 0.00 0.00 0.00 21 1015.9
20260506203013 79 194 5.0 13.0 0.00 0.00 0.00 22 1015.9
20260506202503 80 140 5.0 15.0 0.00 0.00 0.00 21 1015.9
20260506202005 78 244 7.0 15.0 0.00 0.00 0.00 23 1016.0
20260506201525 79 126 9.0 14.0 0.00 0.00 0.00 22 1015.9
20260506201004 78 224 4.0 8.0 0.00 0.00 0.00 22 1016.0
20260506200506 78 149 4.0 8.0 0.00 0.00 0.00 22 1016.1
20260506200020 78 229 4.0 8.0 0.00 0.00 0.00 23 1016.2
20260506195510 79 88 5.0 15.0 0.00 0.00 0.00 22 1016.3
20260506195011 80 204 7.0 15.0 0.00 0.00 0.00 22 1016.3
20260506194504 80 265 3.0 7.0 0.00 0.00 0.00 21 1016.4
20260506194003 81 265 3.0 10.0 0.00 0.00 0.00 21 1016.4
20260506193512 80 272 4.0 10.0 0.00 0.00 0.00 21 1016.4
20260506193005 80 298 3.0 8.0 0.00 0.00 0.00 22 1016.5
20260506192502 81 81 2.0 8.0 0.00 0.00 0.00 21 1016.5
20260506192004 81 294 4.0 9.0 0.00 0.00 0.00 22 1016.5
20260506191508 81 255 5.0 12.0 0.00 0.00 0.00 22 1016.6
20260506191004 80 236 3.0 12.0 0.00 0.00 0.00 21 1016.5
20260506190504 79 258 5.0 12.0 0.00 0.00 0.00 23 1016.6
20260506190020 78 218 4.0 15.0 0.00 0.00 0.00 23 1016.6
20260506185506 77 231 9.0 15.0 0.00 0.00 0.00 24 1016.7
20260506185008 77 174 5.0 12.0 0.00 0.00 0.00 23 1016.7
20260506184526 77 328 3.0 9.0 0.00 0.00 0.00 24 1016.8
20260506184013 75 217 3.0 11.0 0.00 0.00 0.00 25 1017.0
20260506183507 76 198 4.0 11.0 0.00 0.00 0.00 24 1017.0
20260506183005 78 87 3.0 10.0 0.00 0.00 0.00 22 1017.1
20260506182503 78 226 4.0 10.0 0.00 0.00 0.00 23 1017.2
20260506182003 78 271 2.0 11.0 0.00 0.00 0.00 23 1017.2
20260506181509 78 277 4.0 12.0 0.00 0.00 0.00 24 1017.2
20260506181006 76 275 5.0 12.0 0.00 0.00 0.00 24 1017.2
20260506180506 74 213 3.0 9.0 0.00 0.00 0.00 25 1017.3
20260506180012 76 119 4.0 9.0 0.00 0.00 0.00 23 1017.3
20260506175506 78 281 2.0 9.0 0.00 0.00 0.00 23 1017.3
20260506175017 78 287 4.0 10.0 0.00 0.00 0.00 24 1017.3
20260506174517 77 195 1.0 11.0 0.00 0.00 0.00 24 1017.3
20260506174011 76 263 4.0 11.0 0.00 0.00 0.00 25 1017.5
20260506173512 75 263 0.0 7.0 0.00 0.00 0.00 26 1017.4
20260506173020 75 130 3.0 9.0 0.00 0.00 0.00 25 1017.4
20260506172503 75 188 5.0 9.0 0.00 0.00 0.00 26 1017.4
20260506172005 74 219 4.0 8.0 0.00 0.00 0.00 27 1017.4
20260506171504 75 149 3.0 7.0 0.00 0.00 0.00 26 1017.5
20260506171003 76 175 0.0 4.0 0.00 0.00 0.00 26 1017.5
20260506170505 76 9 1.0 7.0 0.00 0.00 0.00 26 1017.4
20260506170007 75 261 2.0 9.0 0.00 0.00 0.00 27 1017.4
20260506165506 73 227 3.0 9.0 0.00 0.00 0.00 27 1017.4
20260506165004 73 211 2.0 7.0 0.00 0.00 0.00 28 1017.4
20260506164514 72 225 2.0 6.0 0.00 0.00 0.00 29 1017.3
20260506164007 72 200 3.0 10.0 0.00 0.00 0.00 29 1017.3
20260506163511 72 195 6.0 10.0 0.00 0.00 0.00 29 1017.3
20260506163018 73 86 1.0 5.0 0.00 0.00 0.00 28 1017.3
20260506162508 72 212 1.0 5.0 0.00 0.00 0.00 29 1017.3
20260506162013 72 81 2.0 4.0 0.00 0.00 0.00 28 1017.3
20260506161504 72 223 0.0 4.0 0.00 0.00 0.00 29 1017.3
20260506161004 71 223 2.0 5.0 0.00 0.00 0.00 30 1017.3
20260506160504 69 262 4.0 7.0 0.00 0.00 0.00 31 1017.3
20260506160007 70 101 2.0 7.0 0.00 0.00 0.00 30 1017.2
20260506155506 70 206 2.0 7.0 0.00 0.00 0.00 31 1017.2
20260506155007 69 140 1.0 5.0 0.00 0.00 0.00 31 1017.2
20260506154512 69 132 2.0 5.0 0.00 0.00 0.00 32 1017.2
20260506154008 69 132 2.0 6.0 0.00 0.00 0.00 32 1017.2
20260506153512 68 190 3.0 8.0 0.00 0.00 0.00 33 1017.2
20260506153017 68 184 4.0 8.0 0.00 0.00 0.00 33 1017.3
20260506152507 68 97 2.0 6.0 0.00 0.00 0.00 33 1017.3
20260506152009 67 218 3.0 7.0 0.00 0.00 0.00 33 1017.3
20260506151520 67 184 3.0 6.0 0.00 0.00 0.00 34 1017.3
20260506151010 67 198 2.0 7.0 0.00 0.00 0.00 34 1017.3
20260506150502 66 186 1.0 7.0 0.00 0.00 0.00 35 1017.2
20260506150005 66 113 3.0 6.0 0.00 0.00 0.00 35 1017.3
20260506145502 65 216 1.0 7.0 0.00 0.00 0.00 36 1017.3
20260506145005 64 126 3.0 7.0 0.00 0.00 0.00 36 1017.3
20260506144518 64 171 1.0 4.0 0.00 0.00 0.00 36 1017.3
20260506144007 63 134 0.0 3.0 0.00 0.00 0.00 37 1017.3
20260506143507 63 73 1.0 3.0 0.00 0.00 0.00 37 1017.2
20260506143018 63 97 0.0 3.0 0.00 0.00 0.00 39 1017.3
20260506142510 62 184 0.0 4.0 0.00 0.00 0.00 39 1017.3
20260506142009 62 119 1.0 4.0 0.00 0.00 0.00 40 1017.2
20260506141518 61 130 3.0 4.0 0.00 0.00 0.00 40 1017.1
20260506141011 61 113 2.0 7.0 0.00 0.00 0.00 41 1017.1
20260506140509 60 98 4.0 7.0 0.00 0.00 0.00 42 1017.0
20260506140025 60 81 2.0 6.0 0.00 0.00 0.00 43 1017.0
20260506135503 59 90 3.0 6.0 0.00 0.00 0.00 43 1016.8
20260506135017 58 110 3.0 6.0 0.00 0.00 0.00 43 1016.8
20260506134509 57 90 3.0 5.0 0.00 0.00 0.00 45 1016.6
20260506134011 57 109 3.0 5.0 0.00 0.00 0.00 46 1016.5
20260506133507 56 79 2.0 5.0 0.00 0.00 0.00 47 1016.5
20260506133011 55 65 3.0 4.0 0.00 0.00 0.00 47 1016.4
20260506132507 55 78 2.0 3.0 0.00 0.00 0.00 49 1016.3
20260506132007 55 76 2.0 3.0 0.00 0.00 0.00 48 1016.2
20260506131522 54 94 2.0 4.0 0.00 0.00 0.00 49 1016.1
20260506131007 54 90 2.0 4.0 0.00 0.00 0.00 49 1016.1
20260506130514 53 94 2.0 4.0 0.00 0.00 0.00 50 1016.1
20260506130022 53 92 3.0 4.0 0.00 0.00 0.00 50 1016.0
20260506125508 52 92 3.0 5.0 0.00 0.00 0.00 51 1016.0
20260506125011 51 89 3.0 5.0 0.00 0.00 0.00 51 1015.9